FW9423 Weather Reports


time (UTC)temp
C
wind
direction
speed
KPH
gust
KPH
rain 1hr
cm
rain 24hr
cm
rain mn
cm
humidity
%
barometer
mb
20260505224042 15 360 6.4 12.9 0.00 0.00 0.00 72 1028.1
20260505223544 15 360 4.8 12.9 0.00 0.00 0.00 73 1028.0
20260505223104 15 360 3.2 8.0 0.00 0.00 0.00 73 1028.0
20260505222542 15 360 4.8 9.7 0.00 0.00 0.00 73 1027.9
20260505222043 15 360 4.8 9.7 0.00 0.00 0.00 73 1027.8
20260505221550 15 360 4.8 9.7 0.00 0.00 0.00 73 1027.8
20260505221042 15 360 3.2 9.7 0.00 0.00 0.00 73 1027.8
20260505220543 15 360 4.8 9.7 0.00 0.00 0.00 73 1027.8
20260505220055 15 360 3.2 9.7 0.00 0.00 0.00 72 1027.6
20260505215543 15 360 4.8 9.7 0.00 0.00 0.00 72 1027.6
20260505215043 15 360 4.8 9.7 0.00 0.00 0.00 72 1027.6
20260505214557 15 360 4.8 9.7 0.00 0.00 0.00 72 1027.5
20260505214043 15 360 3.2 8.0 0.00 0.00 0.00 72 1027.5
20260505213540 15 360 4.8 9.7 0.00 0.00 0.00 72 1027.4
20260505213054 15 360 3.2 9.7 0.00 0.00 0.00 72 1027.3
20260505212542 15 360 4.8 9.7 0.00 0.00 0.00 72 1027.3
20260505212043 15 360 3.2 8.0 0.00 0.00 0.00 71 1027.1
20260505211605 15 360 3.2 8.0 0.00 0.00 0.00 71 1027.1
20260505211041 15 360 3.2 9.7 0.00 0.00 0.00 71 1027.1
20260505210543 15 360 4.8 9.7 0.00 0.00 0.00 71 1027.1
20260505210054 15 360 3.2 9.7 0.00 0.00 0.00 71 1027.1
20260505205543 15 360 4.8 12.9 0.00 0.00 0.00 71 1027.1
20260505205045 15 360 4.8 12.9 0.00 0.00 0.00 71 1027.0
20260505204552 15 360 4.8 6.4 0.00 0.00 0.00 71 1026.9
20260505204043 15 360 3.2 8.0 0.00 0.00 0.00 71 1026.9
20260505203543 15 360 3.2 8.0 0.00 0.00 0.00 70 1026.9
20260505203113 15 360 4.8 8.0 0.00 0.00 0.00 70 1026.9
20260505202542 14 360 3.2 8.0 0.00 0.00 0.00 70 1026.9
20260505202043 14 360 3.2 8.0 0.00 0.00 0.00 69 1026.9
20260505201555 14 360 3.2 6.4 0.00 0.00 0.00 68 1026.8
20260505201043 14 360 1.6 8.0 0.00 0.00 0.00 68 1026.7
20260505200543 15 360 1.6 8.0 0.00 0.00 0.00 67 1026.7
20260505200054 15 360 1.6 8.0 0.00 0.00 0.00 67 1026.7
20260505195540 15 360 3.2 8.0 0.00 0.00 0.00 67 1026.7
20260505195039 15 360 3.2 8.0 0.00 0.00 0.00 67 1026.7
20260505194548 15 360 3.2 8.0 0.00 0.00 0.00 67 1026.7
20260505194043 15 360 3.2 8.0 0.00 0.00 0.00 66 1026.7
20260505193542 15 360 3.2 8.0 0.00 0.00 0.00 66 1026.7
20260505193047 15 360 4.8 8.0 0.00 0.00 0.00 66 1026.7
20260505192545 15 360 3.2 8.0 0.00 0.00 0.00 65 1026.7
20260505192043 15 360 3.2 6.4 0.00 0.00 0.00 64 1026.7
20260505191551 15 360 3.2 6.4 0.00 0.00 0.00 65 1026.7
20260505191042 15 360 3.2 9.7 0.00 0.00 0.00 64 1026.7
20260505190543 15 360 3.2 9.7 0.00 0.00 0.00 64 1026.7
20260505190051 15 360 4.8 9.7 0.00 0.00 0.00 64 1026.6
20260505185543 15 360 4.8 9.7 0.00 0.00 0.00 63 1026.6
20260505185040 15 360 3.2 8.0 0.00 0.00 0.00 63 1026.6
20260505184551 15 360 3.2 8.0 0.00 0.00 0.00 62 1026.5
20260505184043 15 360 3.2 8.0 0.00 0.00 0.00 62 1026.5
20260505183540 15 360 3.2 8.0 0.00 0.00 0.00 61 1026.6
20260505183049 15 360 3.2 8.0 0.00 0.00 0.00 61 1026.4
20260505182546 15 360 3.2 8.0 0.00 0.00 0.00 60 1026.4
20260505182042 15 360 3.2 8.0 0.00 0.00 0.00 59 1026.5
20260505181550 15 360 3.2 8.0 0.00 0.00 0.00 59 1026.4
20260505181046 15 360 3.2 8.0 0.00 0.00 0.00 58 1026.5
20260505180548 15 360 3.2 8.0 0.00 0.00 0.00 58 1026.6
20260505180057 15 360 3.2 8.0 0.00 0.00 0.00 57 1026.6
20260505175543 15 360 4.8 8.0 0.00 0.00 0.00 57 1026.5
20260505175043 15 360 0.0 4.8 0.00 0.00 0.00 57 1026.6
20260505174548 15 0 0.0 4.8 0.00 0.00 0.00 55 1026.7
20260505174043 15 0 1.6 6.4 0.00 0.00 0.00 54 1026.7
20260505173542 15 360 3.2 6.4 0.00 0.00 0.00 54 1026.7
20260505173049 15 360 1.6 8.0 0.00 0.00 0.00 54 1026.6
20260505172539 15 360 3.2 8.0 0.00 0.00 0.00 54 1026.6
20260505172043 15 360 4.8 8.0 0.00 0.00 0.00 53 1026.5
20260505171549 15 360 3.2 6.4 0.00 0.00 0.00 53 1026.5
20260505171039 15 360 3.2 6.4 0.00 0.00 0.00 53 1026.4
20260505170541 15 360 3.2 6.4 0.00 0.00 0.00 53 1026.5
20260505170051 15 360 3.2 8.0 0.00 0.00 0.00 53 1026.5
20260505165545 15 360 3.2 8.0 0.00 0.00 0.00 53 1026.6
20260505165043 15 360 3.2 9.7 0.00 0.00 0.00 53 1026.6
20260505164553 15 360 4.8 9.7 0.00 0.00 0.00 54 1026.6
20260505164045 15 360 3.2 8.0 0.00 0.00 0.00 54 1026.6
20260505163545 15 360 3.2 8.0 0.00 0.00 0.00 54 1026.6
20260505163153 15 360 1.6 6.4 0.00 0.00 0.00 54 1026.4
20260505163049 15 360 1.6 6.4 0.00 0.00 0.00 54 1026.4
20260505162546 15 0 0.0 0.0 0.00 0.00 0.00 54 1026.4
20260505162043 15 0 0.0 0.0 0.00 0.00 0.00 54 1026.4
20260505161601 15 0 0.0 3.2 0.00 0.00 0.00 53 1026.4
20260505161043 15 0 0.0 6.4 0.00 0.00 0.00 53 1026.4
20260505160546 15 360 1.6 6.4 0.00 0.00 0.00 53 1026.3
20260505153053 16 360 0.0 3.2 0.00 0.00 0.00 52 1026.5
20260505152543 16 360 1.6 3.2 0.00 0.00 0.00 51 1026.6
20260505152042 16 360 1.6 3.2 0.00 0.00 0.00 51 1026.5
20260505151551 16 360 1.6 4.8 0.00 0.00 0.00 51 1026.4
20260505151043 16 360 1.6 4.8 0.00 0.00 0.00 51 1026.5
20260505150543 16 0 0.0 0.0 0.00 0.00 0.00 51 1026.5
20260505140542 17 360 3.2 12.9 0.00 0.00 0.00 47 1026.7
20260505140113 17 360 4.8 12.9 0.00 0.00 0.00 49 1026.7
20260505130103 17 360 4.8 9.7 0.00 0.00 0.00 53 1026.6
20260505124608 17 360 3.2 8.0 0.00 0.00 0.00 53 1026.6
20260505124041 17 360 4.8 9.7 0.00 0.00 0.00 53 1026.6
20260505123541 17 360 3.2 9.7 0.00 0.00 0.00 53 1026.4
20260505123108 17 360 4.8 9.7 0.00 0.00 0.00 53 1026.4
20260505122542 17 360 3.2 9.7 0.00 0.00 0.00 53 1026.4
20260505122044 17 360 4.8 9.7 0.00 0.00 0.00 53 1026.4
20260505121551 17 360 3.2 8.0 0.00 0.00 0.00 53 1026.4
20260505121040 17 360 3.2 8.0 0.00 0.00 0.00 53 1026.4
20260505120543 17 360 3.2 6.4 0.00 0.00 0.00 53 1026.4
20260505120105 17 360 1.6 8.0 0.00 0.00 0.00 52 1026.3
20260505115543 17 360 3.2 8.0 0.00 0.00 0.00 52 1026.3
20260505115045 17 360 3.2 8.0 0.00 0.00 0.00 52 1026.3
20260505114556 17 360 3.2 8.0 0.00 0.00 0.00 52 1026.2
20260505114042 17 360 3.2 6.4 0.00 0.00 0.00 52 1026.2
20260505113543 17 360 3.2 8.0 0.00 0.00 0.00 51 1026.3
20260505113100 17 360 3.2 8.0 0.00 0.00 0.00 51 1026.3
20260505112543 17 360 4.8 8.0 0.00 0.00 0.00 51 1026.2
20260505112042 17 360 4.8 8.0 0.00 0.00 0.00 51 1026.2
20260505111549 17 360 3.2 8.0 0.00 0.00 0.00 51 1026.1
20260505111045 17 360 3.2 9.7 0.00 0.00 0.00 51 1026.2
20260505110541 17 360 3.2 9.7 0.00 0.00 0.00 51 1026.1
20260505102043 17 360 4.8 9.7 0.00 0.00 0.00 49 1025.7
20260505101555 18 360 3.2 9.7 0.00 0.00 0.00 48 1025.8
20260505101042 18 360 4.8 12.9 0.00 0.00 0.00 47 1025.6
20260505100542 18 360 4.8 12.9 0.00 0.00 0.00 47 1025.6
20260505100050 18 360 4.8 8.0 0.00 0.00 0.00 47 1025.5
20260505095542 18 360 3.2 9.7 0.00 0.00 0.00 47 1025.5
20260505095043 18 360 3.2 12.9 0.00 0.00 0.00 46 1025.5
20260505094600 18 360 3.2 12.9 0.00 0.00 0.00 46 1025.5
20260505094042 18 360 6.4 12.9 0.00 0.00 0.00 46 1025.5
20260505093539 18 360 3.2 12.9 0.00 0.00 0.00 46 1025.4
20260505093055 18 360 6.4 14.5 0.00 0.00 0.00 46 1025.3
20260505092544 18 360 6.4 14.5 0.00 0.00 0.00 46 1025.4
20260505092046 18 360 4.8 14.5 0.00 0.00 0.00 47 1025.4
20260505091551 18 360 4.8 9.7 0.00 0.00 0.00 47 1025.3
20260505091042 18 360 4.8 8.0 0.00 0.00 0.00 46 1025.3
20260505090542 18 360 1.6 4.8 0.00 0.00 0.00 45 1025.4
20260505090057 18 360 0.0 6.4 0.00 0.00 0.00 45 1025.2
20260505085544 18 360 1.6 8.0 0.00 0.00 0.00 44 1025.2
20260505085045 18 360 3.2 8.0 0.00 0.00 0.00 44 1025.2
20260505084553 18 360 3.2 9.7 0.00 0.00 0.00 44 1025.2
20260505084042 19 360 4.8 9.7 0.00 0.00 0.00 44 1025.1
20260505083547 19 360 3.2 9.7 0.00 0.00 0.00 44 1025.1
20260505083106 18 360 4.8 9.7 0.00 0.00 0.00 44 1025.1
20260505082543 19 360 4.8 12.9 0.00 0.00 0.00 44 1025.0
20260505082040 19 360 6.4 17.7 0.00 0.00 0.00 43 1025.0
20260505081547 19 360 8.0 17.7 0.00 0.00 0.00 43 1025.0
20260505081040 19 360 4.8 19.3 0.00 0.00 0.00 43 1025.1
20260505080544 20 360 8.0 19.3 0.00 0.00 0.00 43 1024.9
20260505080054 20 360 6.4 14.5 0.00 0.00 0.00 43 1025.0
20260505075541 20 360 4.8 9.7 0.00 0.00 0.00 43 1024.9
20260505075042 20 360 4.8 17.7 0.00 0.00 0.00 43 1024.9
20260505074553 20 360 6.4 17.7 0.00 0.00 0.00 42 1025.1
20260505074043 20 360 1.6 9.7 0.00 0.00 0.00 43 1025.0
20260505073542 20 0 0.0 8.0 0.00 0.00 0.00 44 1025.1
20260505073056 20 360 3.2 8.0 0.00 0.00 0.00 44 1025.1
20260505072542 20 360 1.6 9.7 0.00 0.00 0.00 46 1025.1
20260505072042 20 0 1.6 9.7 0.00 0.00 0.00 45 1025.1
20260505071600 20 360 4.8 12.9 0.00 0.00 0.00 45 1025.1
20260505071039 20 360 4.8 12.9 0.00 0.00 0.00 45 1025.1
20260505070543 20 360 3.2 12.9 0.00 0.00 0.00 45 1025.0
20260505065544 20 360 4.8 17.7 0.00 0.00 0.00 46 1025.0
20260505065042 20 360 8.0 17.7 0.00 0.00 0.00 47 1025.0
20260505064556 20 360 6.4 17.7 0.00 0.00 0.00 47 1025.0
20260505064039 19 360 8.0 17.7 0.00 0.00 0.00 46 1025.0
20260505063541 20 360 3.2 14.5 0.00 0.00 0.00 45 1025.0
20260505063052 20 360 6.4 14.5 0.00 0.00 0.00 45 1025.0
20260505062541 20 360 3.2 14.5 0.00 0.00 0.00 45 1025.0
20260505062043 20 360 4.8 14.5 0.00 0.00 0.00 45 1025.0
20260505061632 20 360 4.8 14.5 0.00 0.00 0.00 46 1024.9
20260505061042 20 360 6.4 14.5 0.00 0.00 0.00 45 1025.0
20260505060542 20 92 3.2 11.3 0.00 0.00 0.00 44 1025.0
20260505060059 21 115 3.2 11.3 0.00 0.00 0.00 42 1025.0
20260505055540 21 0 1.6 11.3 0.00 0.00 0.00 43 1025.0
20260505055042 20 173 3.2 11.3 0.00 0.00 0.00 44 1024.9
20260505054555 20 0 1.6 12.9 0.00 0.00 0.00 46 1025.0
20260505054043 19 360 4.8 12.9 0.00 0.00 0.00 47 1025.0
20260505053542 19 360 4.8 12.9 0.00 0.00 0.00 47 1025.0
20260505053056 19 360 3.2 12.9 0.00 0.00 0.00 48 1025.0
20260505052700 19 360 4.8 12.9 0.00 0.00 0.00 48 1025.2
20260505052043 19 360 3.2 12.9 0.00 0.00 0.00 48 1025.2
20260505051547 19 360 4.8 12.9 0.00 0.00 0.00 48 1025.1
20260505051041 19 360 3.2 9.7 0.00 0.00 0.00 49 1025.2
20260505050543 19 360 4.8 16.1 0.00 0.00 0.00 48 1025.2
20260505041555 18 360 6.4 16.1 0.00 0.00 0.00 52 1025.5
20260505041046 19 360 4.8 14.5 0.00 0.00 0.00 52 1025.6
20260505040542 18 360 3.2 14.5 0.00 0.00 0.00 52 1025.7
20260505040100 19 360 6.4 14.5 0.00 0.00 0.00 50 1025.8
20260505035544 19 360 3.2 12.9 0.00 0.00 0.00 51 1025.8
20260505035041 18 360 4.8 19.3 0.00 0.00 0.00 51 1025.9
20260505034550 18 360 6.4 19.3 0.00 0.00 0.00 50 1026.0
20260505034040 19 360 4.8 16.1 0.00 0.00 0.00 50 1026.1
20260505033541 18 360 4.8 16.1 0.00 0.00 0.00 51 1026.1
20260505033059 18 360 6.4 16.1 0.00 0.00 0.00 52 1026.3
20260505032543 18 360 3.2 16.1 0.00 0.00 0.00 54 1026.2
20260505032043 18 360 6.4 16.1 0.00 0.00 0.00 54 1026.4
20260505031552 18 360 6.4 16.1 0.00 0.00 0.00 54 1026.4
20260505031039 18 360 4.8 16.1 0.00 0.00 0.00 55 1026.5
20260505030543 18 360 6.4 16.1 0.00 0.00 0.00 54 1026.7
20260505030051 18 360 8.0 14.5 0.00 0.00 0.00 53 1026.7
20260505025540 18 360 4.8 14.5 0.00 0.00 0.00 54 1026.8
20260505025047 17 360 6.4 17.7 0.00 0.00 0.00 55 1026.9
20260505024544 18 360 6.4 17.7 0.00 0.00 0.00 54 1026.8
20260505024039 18 360 6.4 14.5 0.00 0.00 0.00 54 1026.9
20260505023543 17 360 6.4 14.5 0.00 0.00 0.00 56 1026.9
20260505023051 17 360 4.8 14.5 0.00 0.00 0.00 58 1027.1
20260505022543 17 360 4.8 12.9 0.00 0.00 0.00 59 1027.2
20260505022042 17 360 4.8 14.5 0.00 0.00 0.00 59 1027.2
20260505021550 17 360 6.4 16.1 0.00 0.00 0.00 59 1027.2
20260505021044 17 360 8.0 16.1 0.00 0.00 0.00 59 1027.2
20260505020540 17 360 4.8 14.5 0.00 0.00 0.00 60 1027.3
20260505020050 17 360 6.4 14.5 0.00 0.00 0.00 61 1027.4
20260505015543 17 360 6.4 17.7 0.00 0.00 0.00 61 1027.4
20260505015044 17 360 8.0 17.7 0.00 0.00 0.00 61 1027.4
20260505014549 17 360 9.7 17.7 0.00 0.00 0.00 60 1027.4
20260505014043 17 360 6.4 14.5 0.00 0.00 0.00 61 1027.5
20260505013543 17 360 6.4 16.1 0.00 0.00 0.00 62 1027.6
20260505013049 17 360 8.0 16.1 0.00 0.00 0.00 62 1027.6
20260505012539 17 360 4.8 12.9 0.00 0.00 0.00 63 1027.7
20260505012044 17 360 4.8 12.9 0.00 0.00 0.00 63 1027.7
20260505011552 16 360 6.4 12.9 0.00 0.00 0.00 64 1027.6
20260505011043 16 360 6.4 12.9 0.00 0.00 0.00 64 1027.6
20260505010540 16 360 4.8 14.5 0.00 0.00 0.00 64 1027.7
20260505005541 16 360 6.4 14.5 0.00 0.00 0.00 65 1027.8
20260505005043 16 360 4.8 12.9 0.00 0.00 0.00 66 1028.0
20260505004550 16 360 6.4 12.9 0.00 0.00 0.00 66 1028.0
20260505004042 16 360 6.4 12.9 0.00 0.00 0.00 66 1028.0
20260505003545 16 360 4.8 12.9 0.00 0.00 0.00 67 1028.1
20260505003052 15 360 8.0 14.5 0.00 0.00 0.00 68 1028.1
20260505002540 15 360 6.4 14.5 0.00 0.00 0.00 68 1028.1
20260505002043 15 360 6.4 14.5 0.00 0.00 0.00 68 1028.1
20260505001547 15 360 4.8 12.9 0.00 0.00 0.00 69 1028.1
20260505001039 15 360 4.8 12.9 0.00 0.00 0.00 70 1028.0
20260505000542 15 360 4.8 12.9 0.00 0.00 0.00 70 1027.9
20260505000055 15 360 4.8 12.9 0.00 0.00 0.00 71 1027.8
20260504235540 14 360 4.8 12.9 0.00 0.00 0.00 72 1027.7
20260504235043 14 360 4.8 9.7 0.00 0.00 0.00 73 1027.7
20260504234603 13 360 4.8 9.7 0.00 0.00 0.00 74 1027.7
20260504234044 13 360 4.8 9.7 0.00 0.00 0.00 75 1027.6
20260504233540 13 360 4.8 9.7 0.00 0.00 0.00 75 1027.6
20260504233203 12 360 4.8 12.9 0.00 0.00 0.00 76 1027.5
20260504232541 12 360 4.8 12.9 0.00 0.00 0.00 77 1027.4
20260504232041 12 360 4.8 12.9 0.00 0.00 0.00 78 1027.4
20260504231553 12 360 4.8 9.7 0.00 0.00 0.00 78 1027.3
20260504231041 12 360 3.2 8.0 0.00 0.00 0.00 79 1027.3
20260504230543 11 360 3.2 12.9 0.00 0.00 0.00 79 1027.3
20260504230058 11 360 4.8 12.9 0.00 0.00 0.00 79 1027.2
20260504225544 11 360 4.8 12.9 0.00 0.00 0.00 80 1027.1
20260504225041 11 360 3.2 8.0 0.00 0.00 0.00 81 1027.1
20260504224556 10 360 3.2 8.0 0.00 0.00 0.00 82 1027.0